Location: Langenleiten
(50.3287°N, 9.9795°E)
Time: 05:24:05
(UTC+00:00)

Daily predictions for brighter satellites

Satellite Brightness Start Highest point End
(mag) Time Altitude Azimuth Time Altitude Azimuth Time Altitude Azimuth
Cosmos 1726 Rocket 4.3 00:07:11 45° ENE 00:07:11 45° ENE 00:10:37 10° NNE
Cosmos 1331 Rocket 4.4 00:06:53 50° WNW 00:07:19 51° WNW 00:12:28 10° NNE
ATLAS 2AS CENTAUR R/B 3.0 00:09:45 38° WSW 00:12:27 63° NW 00:19:13 10° NE
IDEFIX/ARIANE 42P 3.9 00:11:20 10° NE 00:15:44 27° E 00:16:41 26° ESE
Meteor 1-5 Rocket 4.1 00:15:32 10° NNW 00:20:53 69° W 00:20:58 69° WSW
Cosmos 1953 Rocket 3.8 00:18:09 10° N 00:22:18 67° NE 00:22:18 67° NE
Cosmos 1980 Rocket 2.6 00:19:26 10° NW 00:24:20 46° W 00:24:20 46° W
USA 234 3.9 00:20:18 10° E 00:26:38 55° NNE 00:33:00 10° WNW
Cosmos 44 Rocket 3.9 00:29:47 46° ESE 00:29:47 46° ESE 00:34:33 10° NE
Cosmos 1825 Rocket 4.3 00:29:05 10° NNW 00:32:19 44° NW 00:32:19 44° NW
COSMOS 2406 3.9 00:32:29 38° SE 00:33:21 41° ESE 00:38:42 10° NE
Meteor 2-10 4.2 00:30:26 10° NNW 00:35:50 60° W 00:36:02 60° WSW
Cosmos 2369 3.6 00:30:36 10° NNW 00:36:16 70° WSW 00:36:38 68° SW
Cosmos 1634 Rocket 4.1 00:35:56 51° SSE 00:37:27 70° E 00:43:35 10° NNE
Cosmos 724 4.3 00:44:49 58° S 00:45:50 69° SE 00:51:46 10° NE
Cosmos 2084 3.7 00:46:23 60° NNW 00:46:23 60° NNW 00:50:16 10° NE
Cosmos 1627 Rocket 4.5 00:41:02 10° NNW 00:47:15 67° W 00:48:30 54° SSW
Spot 1 4.0 00:43:15 10° NNE 00:47:07 78° NNE 00:47:07 78° NNE
Cosmos 1607 4.1 00:47:22 51° SSE 00:48:33 59° ESE 00:54:41 10° NE
Cosmos 2360 Rocket 3.3 00:46:33 10° NNW 00:51:59 43° NE 00:57:23 10° ESE
Cosmos-2242 2.9 00:52:12 77° NE 00:52:12 77° NE 00:56:13 10° NNE
Cosmos 2333 Rocket 2.5 00:47:29 10° NNW 00:53:09 67° ENE 00:57:05 20° SE
FENGYUN 3A 4.5 00:49:46 10° NNE 00:54:57 43° E 00:56:43 33° SE
USA 281 3.2 00:51:27 27° SSE 00:55:22 86° ENE 01:01:59 10° NNW
Cosmos 2082 Rocket 2.2 00:59:24 54° WSW 01:00:40 72° WNW 01:06:25 10° NNE
Cosmos 1842 4.3 01:02:44 33° ENE 01:02:44 33° ENE 01:05:07 10° NNE
Cosmos 1833 Rocket 4.5 01:00:04 15° W 01:03:07 23° NW 01:07:33 10° NNE
Meteor 2-2 Rocket 4.1 01:02:52 54° S 01:04:14 86° E 01:09:54 10° NNE
Cosmos 2279 Rocket 4.0 01:03:59 44° S 01:06:08 79° E 01:12:24 10° NNE
Cosmos 2278 3.8 01:01:13 10° NNW 01:06:57 75° ENE 01:11:11 19° SE
Cosmos 2322 Rocket 2.7 01:01:49 10° NNW 01:07:24 57° NE 01:12:57 10° SE
Cosmos 1486 Rocket 3.9 01:02:29 10° NNW 01:07:44 86° ENE 01:09:36 41° SSE
NPP 4.0 01:02:51 10° NNE 01:08:10 56° E 01:09:56 39° SSE
Cosmos 2221 3.5 01:07:40 33° ESE 01:08:32 37° E 01:12:21 10° NNE
Resurs 1-4 Rocket 4.0 01:04:33 10° NE 01:08:45 23° E 01:12:17 13° SE
NOSS 3-3 (A) 3.8 01:14:12 47° S 01:15:28 60° SE 01:21:33 10° NE
ACS3 Solar Sail 1.9 01:10:47 10° N 01:16:41 59° WNW 01:18:33 42° SW
Cosmos 1777 Rocket 3.9 01:13:04 10° NNW 01:18:22 90° WSW 01:20:41 35° SSE
Cosmos 2219 Rocket 3.3 01:15:55 10° NNW 01:21:20 45° NE 01:26:44 10° SE
SL-16 R/B 2.1 01:16:49 10° NNW 01:22:30 72° WSW 01:24:53 36° S
CZ-4C R/B 2.1 01:22:06 45° W 01:23:17 60° NW 01:28:55 10° NE
H-2A R/B 4.1 01:19:29 10° NE 01:23:24 21° E 01:27:21 10° SE
GP-B 3.8 01:19:26 10° NNW 01:23:25 37° WNW 01:23:25 37° WNW
Meteor 1-11 Rocket 4.4 01:17:51 10° N 01:23:40 54° ENE 01:29:12 11° SSE
Cosmos 2180 Rocket 4.5 01:22:10 35° S 01:24:54 77° E 01:31:06 10° NNE
Cosmos 1271 Rocket 3.2 01:27:38 42° ESE 01:27:57 44° E 01:31:17 10° NNE
Meteor 1-14 Rocket 4.2 01:23:51 10° NNW 01:29:38 89° ENE 01:32:37 30° SSE
ATLAS 3B R/B 4.0 01:24:03 10° WNW 01:29:24 24° WSW 01:29:24 24° WSW
SL-4 R/B 2.6 01:31:34 39° SE 01:31:34 39° SE 01:34:06 10° ESE
USA 267 3.8 01:25:05 10° ENE 01:31:19 44° SE 01:34:01 30° S
NOSS 3-3 (C) 3.8 01:30:27 42° S 01:32:12 65° SE 01:38:25 10° NE
Cosmos 2058 Rocket 3.4 01:32:04 45° W 01:32:30 47° WNW 01:36:47 10° N
Cosmos 2266 Rocket 3.9 01:29:03 10° N 01:35:14 86° E 01:39:09 23° S
Cosmos 1470 2.4 01:33:17 10° NNW 01:36:16 66° NW 01:36:16 66° NW
Gbstr 26 Del rocket 2.6 01:37:23 64° SSE 01:37:23 64° SSE 01:40:43 10° ESE
KORONAS-FOTON 4.0 01:38:28 47° NW 01:38:28 47° NW 01:41:21 10° N
USA 290 4.1 01:37:48 22° ESE 01:38:18 22° ESE 01:40:51 10° NE
Cosmos 909 Rocket 4.4 01:37:58 29° WSW 01:41:04 55° NW 01:47:27 10° NE
Cosmos 1536 4.1 01:44:34 10° NNW 01:46:48 24° WNW 01:46:48 24° WNW
Cosmos 2333 4.2 01:42:17 10° NNW 01:47:59 84° ENE 01:53:42 10° SSE
DMSP B5D2-2 4.1 01:45:23 16° SSE 01:49:35 81° ENE 01:54:48 10° NNW
Cosmos 1655 Rocket 4.5 01:44:07 10° N 01:50:19 60° ENE 01:56:26 10° SSE
Cosmos 1812 Rocket 3.5 01:49:34 39° S 01:51:08 80° E 01:55:29 10° NNE
Meteor 2-6 Rocket 4.4 01:49:06 35° SW 01:51:30 65° WNW 01:57:23 10° N
NOSS 3-4 (A) 3.9 01:46:11 10° NW 01:52:45 77° NE 02:00:34 10° SE
NOSS 3-4 (C) 3.9 01:46:43 10° NW 01:53:19 77° NE 02:01:07 10° SE
IDEFIX/ARIANE 42P 2.9 01:50:25 10° N 01:55:25 50° WNW 01:57:22 33° WSW
ISS -1.1 01:56:14 10° SE 01:56:30 10° SE 01:57:02 10° SE
COSMOS 2441 4.3 01:52:44 10° NNE 01:57:33 89° W 01:59:44 33° SSW
Envisat 3.3 01:53:05 10° NNE 01:58:08 62° ESE 02:01:23 22° S
Meteor 2-20 4.5 01:54:40 23° S 01:58:38 82° E 02:04:48 10° NNE
Aureole 1 Rocket 3.5 01:55:19 10° NNW 01:59:22 65° ENE 02:04:26 10° SSE
Cosmos 1707 4.3 02:03:05 14° NW 02:03:05 14° NW 02:04:14 10° NNW
Cosmos 2084 Rocket 3.2 01:58:54 10° NW 02:03:06 75° SW 02:07:20 10° SE
ATLAS 2AS CENTAUR R/B 4.2 01:58:41 10° WNW 02:04:36 30° NNW 02:10:30 10° NE
SWARM C 4.4 02:02:06 10° N 02:05:22 80° E 02:06:24 40° S
SWARM A 4.4 02:02:11 10° N 02:05:26 67° E 02:06:47 32° SSE
Iridium 4 Rocket 3.3 02:03:00 26° S 02:05:44 88° E 02:10:51 10° N
MOZ.5/SAFIR/RUBIN 5/SL-8 3.9 02:05:32 31° SSW 02:07:32 53° W 02:12:07 10° NNW
Meteor 1-27 Rocket 4.2 02:03:31 15° S 02:08:23 63° E 02:14:14 10° NNE
H-2A R/B 2.0 02:06:25 21° SSE 02:08:43 85° ENE 02:12:19 10° NNW
USA 234 3.2 02:02:55 10° ESE 02:09:28 86° SSW 02:16:04 10° WNW
Cosmos 1975 3.1 02:06:54 10° NNW 02:10:19 39° W 02:10:36 38° WSW
Cosmos 990 Rocket 3.9 02:05:57 10° NNW 02:11:01 62° WSW 02:15:53 11° S
Cosmos 44 Rocket 4.3 02:08:21 22° W 02:11:08 41° NW 02:16:03 10° NNE
ADEOS II 2.8 02:06:33 10° NNE 02:11:38 49° E 02:16:28 11° S
Cosmos 1763 Rocket 3.5 02:13:17 28° SSW 02:16:08 79° WNW 02:21:29 10° NNE
ALOS 2.4 02:11:42 10° NNE 02:16:15 68° ESE 02:19:31 19° S
Cosmos 1238 Rocket 2.7 02:15:06 27° SSE 02:16:18 50° E 02:19:15 10° NNE
COSMOS 2406 3.9 02:14:30 23° WSW 02:17:38 43° NW 02:23:08 10° NNE
CZ-2D R/B 2.2 02:15:01 10° NNE 02:20:17 76° ESE 02:24:32 16° S
COSMOS 2428 3.9 02:14:51 10° NNW 02:20:20 45° NE 02:25:47 10° SE
SL-16 R/B 3.6 02:15:27 10° SE 02:21:24 48° ENE 02:27:23 10° N
ADEOS Rocket 3.7 02:15:46 10° N 02:23:10 62° WNW 02:28:49 20° SW
Spot 2 4.3 02:23:42 10° S 02:28:30 74° WSW 02:33:29 10° NNW
Cosmos 1898 Rocket 3.8 02:23:59 10° NNW 02:29:09 69° ENE 02:34:17 10° SSE
Cosmos 1354 Rocket 4.4 02:28:30 10° NW 02:33:27 42° WSW 02:38:18 10° S
Cosmos 1937 Rocket 4.2 02:28:31 10° NNW 02:33:41 58° ENE 02:38:45 10° SE
Cosmos 2360 Rocket 2.6 02:30:42 10° NW 02:35:56 39° WSW 02:41:09 10° S
Cosmos 2333 Rocket 3.3 02:32:30 10° NW 02:36:57 24° WSW 02:39:00 20° SW
SL-19 R/B 4.5 02:31:51 10° NNE 02:37:32 80° ESE 02:43:25 10° SSW
Alouette 2 Rocket 3.2 02:33:41 10° NNW 02:37:50 67° W 02:41:21 10° S
USA 305 3.1 02:38:24 15° NW 02:39:05 18° NNW 02:40:11 10° NE
EP 1 4.1 02:37:27 10° NW 02:40:02 64° SW 02:42:47 10° SSE
USA 281 4.3 02:38:17 19° SW 02:40:35 22° W 02:45:36 10° NW
Meteor 2-10 Rocket 3.7 02:38:16 10° N 02:43:23 73° ENE 02:48:38 10° SSE
Cosmos 540 Rocket 3.8 02:41:18 20° SW 02:44:44 53° WNW 02:49:48 10° NNE
H-2A R/B 3.7 02:41:31 10° NE 02:45:05 30° E 02:48:36 10° SSE
Cosmos 2221 3.8 02:43:58 19° WSW 02:45:40 24° WNW 02:49:04 10° NNW
Cosmos 2082 Rocket 4.1 02:41:39 10° W 02:45:47 20° NW 02:49:55 10° N
Cosmos 1553 Rocket 4.3 02:41:45 10° S 02:47:51 68° E 02:54:08 10° NNE
Resurs 1-4 Rocket 2.2 02:43:40 10° N 02:48:55 61° WNW 02:53:19 14° SW
USA 276 3.2 02:50:08 13° SE 02:50:08 13° SE 02:50:26 10° SE
Cosmos 468 Rocket 4.0 02:46:38 16° SSW 02:50:58 78° WNW 02:56:18 10° NNE
Cosmos 2322 Rocket 3.0 02:46:22 10° NW 02:51:06 28° WSW 02:55:50 10° SSW
BREEZE-M DEB (TANK) 3.2 02:50:12 14° W 02:52:40 68° S 03:01:09 10° ESE
DNEPR-1 R/B 4.5 02:49:17 10° NW 02:54:28 50° WSW 03:00:45 10° SSE
CZ-2C R/B 4.4 02:52:11 10° NE 02:56:19 27° E 03:00:20 10° SSE
Cosmos 1766 Rocket 3.8 02:52:46 10° NNW 02:56:55 45° W 03:01:01 10° SSW
ACS3 Solar Sail 3.7 02:55:07 10° NNW 02:57:56 14° NW 03:00:46 10° WNW
Cosmos 1833 4.3 02:53:59 15° SW 02:58:40 66° WNW 03:04:21 10° NNE
Cosmos 1271 Rocket 4.4 03:01:02 13° W 03:02:26 15° WNW 03:04:36 10° NNW
H-2A R/B 2.1 02:58:02 10° N 03:03:06 64° WNW 03:08:16 10° SSW
CRYOSAT 2 4.4 02:59:25 10° S 03:04:14 61° W 03:09:06 10° N
Cosmos 2219 Rocket 2.7 03:00:02 10° NW 03:05:11 37° WSW 03:10:19 10° S
Cosmos 2237 Rocket 3.6 02:59:54 10° NNW 03:05:21 43° NE 03:10:45 10° ESE
SL-16 R/B 3.9 03:03:13 10° WNW 03:05:32 13° W 03:06:38 12° WSW
RESURS DK-1 4.2 03:02:50 10° NNW 03:06:30 34° NE 03:10:09 10° ESE
SL-4 R/B 3.2 03:05:08 13° W 03:07:12 19° SW 03:09:57 10° S
SL-14 R/B 3.7 03:05:27 10° S 03:09:16 62° E 03:13:08 10° NNE
USA 290 3.5 03:10:18 14° WSW 03:12:21 25° WNW 03:15:04 10° N
CZ-4C R/B 3.9 03:08:29 10° WNW 03:12:43 26° NNW 03:17:57 10° NE
ARGOS 3.3 03:08:41 10° NNE 03:14:07 79° ESE 03:19:29 10° SSW
USA 267 3.4 03:08:05 10° ENE 03:14:40 79° NNW 03:21:13 10° WSW
Cosmos 1408 Rocket 3.8 03:10:50 10° N 03:15:08 71° ENE 03:19:23 10° SSE
Cosmos 1745 Rocket 4.3 03:09:38 10° N 03:15:50 74° ENE 03:21:57 10° SSE
METEOR-M 4.2 03:11:24 10° NNE 03:16:43 71° WNW 03:22:00 10° SSW
Gbstr 26 Del rocket 4.1 03:20:05 10° W 03:22:41 18° SW 03:25:20 10° S
Cosmos 2322 3.7 03:20:01 10° NW 03:25:42 65° WSW 03:31:18 10° SSE
NOSS 3 (A) 4.1 03:29:11 10° NW 03:31:28 64° SW 03:34:24 10° SSE
ISS -3.0 03:29:24 10° SW 03:32:38 45° SSE 03:35:54 10° E
UNK 4.4 03:30:13 10° SSE 03:34:44 62° ENE 03:39:16 10° N
Envisat 4.4 03:32:43 10° N 03:36:41 23° WNW 03:40:37 10° WSW
BREEZE-M DEB (TANK) 2.6 03:32:17 10° WSW 03:38:01 48° SSE 03:40:38 10° E
Meteor 2-4 Rocket 4.3 03:35:23 10° SW 03:40:18 36° WNW 03:45:14 10° N
